Regional Weather Roundup
Issued by NWS

Home | Current Version | Previous Version | Graphics & Text | Print | Product List | Glossary On
Versions: 1 2 3 4 5 6 7 8 9 10 11 12 13 14 15 16 17 18 19 20 21 22 23 24 25 26 27 28 29 30 31 32 33 34 35 36 37 38 39 40 41 42 43 44 45 46 47 48 49 50
000
ASUS43 KDMX 210001
RWRIA

WEATHER ROUNDUP FOR IOWA
NATIONAL WEATHER SERVICE DES MOINES IA
700 PM CDT FRI APR 20 2018

NOTE: "FAIR" INDICATES FEW OR NO CLOUDS BELOW 12,000 FEET WITH NO
SIGNIFICANT WEATHER AND/OR OBSTRUCTIONS TO VISIBILITY.

* - THESE STATIONS ARE NOT NWS STATIONS...THUS NOT UNDER NWS
QUALITY CONTROL.  THEY ALSO DO NOT REPORT WEATHER SUCH
AS PRECIPITATION OR FOG.

IAZ001>003-012>014-020>022-031>034-043>046-210100-
   NORTHWEST IOWA

CITY           SKY/WX    TMP DP  RH WIND       PRES   REMARKS
CARROLL *      CLOUDY    55  34  44 NE9       30.34S
CHEROKEE *     CLOUDY    42  35  77 E12       30.37F
DENISON *      CLOUDY    55  30  38 E6        30.35R
LE MARS *      CLOUDY    48  39  71 NE14      30.35S
ORANGE CITY *  CLOUDY    45  39  81 E9        30.36F
SHELDON *      CLOUDY    43  39  87 E10       30.36F
SIOUX CITY     CLOUDY    55  33  43 SE6       30.32F
6HR MIN TEMP:  52; 6HR MAX TEMP:  60;

SPENCER        MOSUNNY   38  32  79 NE8       30.40S WCI  32
6HR MIN TEMP:  38; 6HR MAX TEMP:  43;

STORM LAKE *   CLOUDY    39  36  87 NE12      30.36F WCI  32
$$

IAZ055>058-069>071-079>083-090>094-210100-
   SOUTHWEST IOWA

CITY           SKY/WX    TMP DP  RH WIND       PRES   REMARKS
ATLANTIC *     CLOUDY    57  27  30 E7        30.32R
AUDUBON *      CLOUDY    55  27  33 E6        30.34R
CLARINDA *     CLOUDY    59  25  27 SE8       30.33R
COUNCIL BLFS * CLOUDY    57  28  33 SE7       30.30S
CRESTON *      CLOUDY    57  25  28 E9        30.32S
HARLAN  *      CLOUDY    57  28  33 SE7G13    30.35R
LAMONI         PTSUNNY   57  26  30 E7        30.30S
6HR MIN TEMP:  55; 6HR MAX TEMP:  61;

RED OAK *      CLOUDY    59  28  31 E7        30.31R
SHENANDOAH *   CLOUDY    59  27  29 E10       30.30S
$$

IAZ047>049-059>061-072>074-084-210100-
   CENTRAL IOWA

CITY           SKY/WX    TMP DP  RH WIND       PRES   REMARKS
AMES           CLOUDY    55  29  36 SE6       30.36R
6HR MIN TEMP:  55; 6HR MAX TEMP:  58;

ANKENY *       CLOUDY    55  28  35 E6        30.37R
BOONE *        CLOUDY    54  32  43 SE5       30.36R
CHARITON *     CLOUDY    55  27  33 E7        30.34S
DES MOINES     CLOUDY    58  25  28 E9        30.35R
6HR MIN TEMP:  56; 6HR MAX TEMP:  61;

GRINNELL*      CLOUDY    56  23  28 SE7       30.37S
KNOXVILLE *    CLOUDY    57  23  26 E8        30.34R
MARSHALLTOWN   CLOUDY    55  31  39 E6        30.37R
6HR MIN TEMP:  55; 6HR MAX TEMP:  57;

NEWTON *       CLOUDY    55  27  33 E7        30.36R
PELLA *        CLOUDY    57  23  26 SE5       30.36S
$$

IAZ004>006-015-016-023>025-035-036-210100-
   NORTH CENTRAL IOWA

CITY           SKY/WX    TMP DP  RH WIND       PRES   REMARKS
ALGONA *       CLOUDY    41  30  65 NE7       30.41R
CLARION *      CLOUDY    45  36  70 NE9       30.40R
ESTHERVILLE    MOSUNNY   35  30  82 NE5       30.41R WCI  31
6HR MIN TEMP:  34; 6HR MAX TEMP:  37;

FORT DODGE *   MOSUNNY   48  42  80 NE8       30.39R
MASON CITY     CLOUDY    37  30  75 NE9       30.42R WCI  30
6HR MIN TEMP:  37; 6HR MAX TEMP:  46;

FOREST CITY *  FAIR      41  28  60 NE3       30.42R
WEBSTER CITY * PTSUNNY   54  37  54 E3        30.36R
IOWA FALLS *   FAIR      55  35  47 E3        30.39R
$$

IAZ007>011-017>019-026>030-037>042-050>054-066-210100-
   NORTHEAST IOWA

CITY           SKY/WX    TMP DP  RH WIND       PRES   REMARKS
CEDAR RAPIDS   FAIR      57  22  25 SE7       30.37R
6HR MIN TEMP:  56; 6HR MAX TEMP:  61;

CHARLES CITY * FAIR      45  32  61 N7        30.41S
CLINTON *      FAIR      57  22  25 S3        30.39S
DECORAH *      FAIR      46  28  49 N6        30.41R
DUBUQUE        FAIR      56  23  27 SE5       30.39S
6HR MIN TEMP:  52; 6HR MAX TEMP:  57;

MONTICELLO *   FAIR      55  23  28 SE5       30.38S
OELWEIN *      FAIR      52  39  62 N8        30.39S
WATERLOO       FAIR      54  30  40 NE3       30.38R
6HR MIN TEMP:  52; 6HR MAX TEMP:  57;

$$

IAZ064-065-067-068-078-210100-
   EAST CENTRAL IOWA

CITY           SKY/WX    TMP DP  RH WIND       PRES   REMARKS
DAVENPORT      FAIR      56  19  23 E8        30.40S
6HR MIN TEMP:  55; 6HR MAX TEMP:  61;

IOWA CITY      FAIR      57  18  21 SE7       30.39S
6HR MIN TEMP:  56; 6HR MAX TEMP:  61;

MT. PLEASANT * CLOUDY    55  19  24 SE7       30.36F
MUSCATINE *    FAIR      59  18  20 SE5       30.38S
QUAD CITIES    FAIR      59  19  21 SE7       30.37S
6HR MIN TEMP:  58; 6HR MAX TEMP:  63;

$$

IAZ062-063-075>077-085>089-095>099-210100-
   SOUTHEAST IOWA

CITY           SKY/WX    TMP DP  RH WIND       PRES   REMARKS
BURLINGTON     PTCLDY    58  18  21 SE8       30.36S
6HR MIN TEMP:  56; 6HR MAX TEMP:  61;

FAIRFIELD *    CLOUDY    57  18  21 SE8       30.35S
FORT MADISON * PTCLDY    57  25  28 SE7       30.36F
KEOKUK *       PTCLDY    57  21  24 SE8       30.35S
OSKALOOSA *    FAIR      56  20  24 SE7       30.36R
CENTERVILLE *    N/A     55  21  26 E3        30.35R
OTTUMWA        CLOUDY    55  23  28 SE8       30.35R
6HR MIN TEMP:  55; 6HR MAX TEMP:  61;

WASHINGTON *   CLOUDY    57  19  23 SE8       30.37F
$$

ABBREVIATIONS USED IN REMARKS
   TC - TEMPERATURES IN CELSIUS
  WCI - WIND CHILL INDEX
   HX - HEAT INDEX
  VSB - VISIBILITY
$$




USA.gov is the U.S. government's official web portal to all federal, state and local government web resources and services.